Change the Weather History Date:

Tuesday, April 9, 2013

  Actual Average Record
Temperature  
Mean Temperature 34 °F -  
Max Temperature 37 °F 56 °F 82 °F (1989)
Min Temperature 30 °F 37 °F 19 °F (1973)
Degree Days  
Heating Degree Days 32    
Moisture  
Dew Point 30 °F    
Average Humidity 91    
Maximum Humidity 100    
Minimum Humidity 81    
Precipitation  
Precipitation 0.26 in - - ()
Sea Level Pressure  
Sea Level Pressure 29.72 in    
Wind  
Wind Speed 10 mph (SW)    
Max Wind Speed 21 mph    
Max Gust Speed 30 mph    
Visibility 5 miles    
Events Rain , Snow    
Averages and records for this station are not official NWS values.
T = Trace of Precipitation, MM = Missing Value Source: NWS Daily Summary

Daily Weather History Graph

Daily Weather History Graph

Search for Another Location

Airport or City:

Trip Planner

Search our weather history database for the weather conditions in past years. The results will help you decide how hot, cold, wet, or windy it might be!

Date:

Astronomy

Apr. 09, 2013 Rise Set
Actual Time 5:56 AM MST 6:47 PM MST
Civil Twilight 5:30 AM MST 7:12 PM MST
Nautical Twilight 5:00 AM MST 7:43 PM MST
Astronomical Twilight 4:29 AM MST 8:14 PM MST
Moon 5:19 AM MST (4/9) 6:25 PM MST (4/9)
Length of Visible Light 13h 42m
Length of Day
12h 51m
Waning Crescent, 0% of the Moon is Illuminated
Apr 9
Waning Crescent
Apr 10
New
Apr 18
First Quarter
Apr 25
Full
May 2
Last Quarter

Hourly Weather History & Observations

Time (MST) Temp. Windchill Dew Point Humidity Pressure Visibility Wind Dir Wind Speed Gust Speed Precip Events Conditions
12:15 AM 32.0 °F 26.4 °F 30.2 °F 93% 29.54 in 2.5 mi North 5.8 mph - N/A   Overcast
12:35 AM 32.0 °F 28.7 °F 30.2 °F 93% 29.53 in 1.5 mi North 3.5 mph - 0.01 in Snow Light Snow
12:55 AM 32.0 °F 25.6 °F 30.2 °F 93% 29.55 in 0.8 mi West 6.9 mph - 0.04 in Snow Light Snow
1:15 AM 30.2 °F 25.4 °F 28.4 °F 93% 29.54 in 0.5 mi WNW 4.6 mph - 0.02 in Snow Snow
1:35 AM 32.0 °F 28.7 °F 30.2 °F 93% 29.54 in 1.0 mi SW 3.5 mph - 0.03 in Snow Light Snow
1:55 AM 32.0 °F 28.7 °F 30.2 °F 93% 29.54 in 0.8 mi SW 3.5 mph - 0.07 in Snow Light Snow
2:15 AM 32.0 °F 27.5 °F 30.2 °F 93% 29.54 in 1.5 mi South 4.6 mph - 0.02 in Snow Light Snow
2:35 AM 32.0 °F 24.2 °F 30.2 °F 93% 29.53 in 4.0 mi SSW 9.2 mph - 0.03 in Rain Light Rain
2:55 AM 32.0 °F 24.8 °F 30.2 °F 93% 29.54 in 1.5 mi SSW 8.1 mph - 0.04 in Snow Light Snow
3:15 AM 30.2 °F 23.4 °F 28.4 °F 93% 29.54 in 0.8 mi SSW 6.9 mph - N/A Snow Light Snow
3:35 AM 30.2 °F 20.2 °F 28.4 °F 93% 29.54 in 1.2 mi SSW 12.7 mph - 0.01 in Snow Light Snow
3:55 AM 30.2 °F 21.9 °F 28.4 °F 93% 29.56 in 0.5 mi SW 9.2 mph - 0.01 in Snow Snow
4:15 AM 30.2 °F 23.4 °F 28.4 °F 93% 29.56 in 0.8 mi SSW 6.9 mph - N/A Snow Light Snow
4:35 AM 30.2 °F 23.4 °F 28.4 °F 93% 29.56 in 0.8 mi SW 6.9 mph - 0.01 in Snow Light Snow
4:55 AM 30.2 °F 20.8 °F 28.4 °F 93% 29.57 in 1.2 mi SW 11.5 mph - 0.02 in Snow Light Snow
5:15 AM 30.2 °F 21.9 °F 28.4 °F 93% 29.57 in 1.0 mi SW 9.2 mph - N/A Snow Light Snow
5:35 AM 32.0 °F 21.6 °F 28.4 °F 87% 29.57 in 5.0 mi SSW 15.0 mph - N/A Rain Light Rain
5:55 AM 32.0 °F 21.6 °F 28.4 °F 87% 29.58 in 4.0 mi SSW 15.0 mph - N/A Rain Light Rain
6:15 AM 32.0 °F 20.8 °F 28.4 °F 87% 29.58 in 1.2 mi South 17.3 mph - N/A Snow Light Snow
6:35 AM 32.0 °F 21.6 °F 28.4 °F 87% 29.59 in 1.8 mi SSW 15.0 mph 20.7 mph N/A Rain Light Rain
6:55 AM 32.0 °F 23.0 °F 28.4 °F 87% 29.61 in 0.5 mi SSW 11.5 mph - N/A Snow Snow
7:15 AM 32.0 °F 22.1 °F 28.4 °F 87% 29.61 in 2.0 mi SSW 13.8 mph - N/A Snow Light Snow
7:35 AM 32.0 °F 23.0 °F 28.4 °F 87% 29.62 in 0.5 mi SSW 11.5 mph - N/A Snow Snow
7:55 AM 32.0 °F 24.2 °F 30.2 °F 93% 29.62 in 0.2 mi SW 9.2 mph - 0.01 in Snow Heavy Snow
8:15 AM 32.0 °F 22.1 °F 30.2 °F 93% 29.64 in 0.8 mi SW 13.8 mph - 0.02 in Snow Light Snow
8:35 AM 32.0 °F 21.6 °F 28.4 °F 87% 29.65 in 8.0 mi SW 15.0 mph - 0.03 in   Mostly Cloudy
8:55 AM 32.0 °F 22.1 °F 28.4 °F 87% 29.67 in 9.0 mi SW 13.8 mph - 0.03 in   Overcast
9:15 AM 32.0 °F 22.1 °F 28.4 °F 87% 29.68 in 8.0 mi SW 13.8 mph - N/A   Overcast
9:35 AM 32.0 °F 20.8 °F 28.4 °F 87% 29.68 in 10.0 mi SW 17.3 mph - N/A   Overcast
9:55 AM 32.0 °F 20.5 °F 28.4 °F 87% 29.69 in 9.0 mi SW 18.4 mph - N/A   Overcast
10:15 AM 32.0 °F 22.1 °F 28.4 °F 87% 29.70 in 10.0 mi SW 13.8 mph - N/A   Overcast
10:35 AM 33.8 °F 22.5 °F 28.4 °F 81% 29.70 in 10.0 mi SW 19.6 mph - N/A   Overcast
10:55 AM 33.8 °F 22.5 °F 28.4 °F 81% 29.71 in 10.0 mi SW 19.6 mph 23.0 mph N/A   Overcast
11:15 AM 33.8 °F 23.5 °F 30.2 °F 87% 29.72 in 4.0 mi SW 16.1 mph - N/A Snow Light Snow
11:35 AM 35.6 °F 25.5 °F 30.2 °F 81% 29.72 in 10.0 mi SW 17.3 mph - N/A   Mostly Cloudy
11:55 AM 35.6 °F 25.5 °F 30.2 °F 81% 29.73 in 5.0 mi SW 17.3 mph - N/A Rain Light Rain
12:15 PM 35.6 °F 26.6 °F 32.0 °F 87% 29.73 in 9.0 mi SSW 13.8 mph - N/A   Overcast
12:35 PM 33.8 °F 23.9 °F 32.0 °F 93% 29.74 in 6.0 mi SSW 15.0 mph 21.9 mph N/A Rain Light Rain
12:55 PM 33.8 °F 23.2 °F 32.0 °F 93% 29.74 in 3.0 mi SW 17.3 mph - N/A Rain Light Rain
1:15 PM 35.6 °F 24.5 °F 32.0 °F 87% 29.75 in 8.0 mi SW 20.7 mph 24.2 mph N/A Rain Light Rain
1:35 PM 35.6 °F 25.2 °F 32.0 °F 87% 29.76 in 3.0 mi SSW 18.4 mph 29.9 mph N/A Snow Light Snow
1:55 PM 35.6 °F 25.2 °F 32.0 °F 87% 29.76 in 9.0 mi SSW 18.4 mph 27.6 mph N/A   Mostly Cloudy
2:15 PM 37.4 °F 27.5 °F 32.0 °F 81% 29.77 in 10.0 mi SSW 18.4 mph 26.5 mph N/A   Mostly Cloudy
2:35 PM 37.4 °F 28.2 °F 32.0 °F 81% 29.78 in 7.0 mi SSW 16.1 mph 21.9 mph N/A Rain Light Rain
2:55 PM 35.6 °F 25.2 °F 32.0 °F 87% 29.78 in 8.0 mi SSW 18.4 mph 23.0 mph N/A   Overcast
3:15 PM 35.6 °F 26.2 °F 32.0 °F 87% 29.79 in 4.0 mi SW 15.0 mph 20.7 mph N/A Rain Light Rain
3:35 PM 33.8 °F 24.8 °F 32.0 °F 93% 29.80 in 2.0 mi SW 12.7 mph - N/A Snow Light Snow
3:55 PM 33.8 °F 23.2 °F 32.0 °F 93% 29.81 in 4.0 mi SSW 17.3 mph - N/A Rain Light Rain
4:15 PM 35.6 °F 25.9 °F 32.0 °F 87% 29.80 in 4.0 mi South 16.1 mph - N/A Rain Light Rain
4:35 PM 35.6 °F 25.5 °F 32.0 °F 87% 29.81 in 10.0 mi SSW 17.3 mph - N/A   Mostly Cloudy
4:55 PM 33.8 °F 23.2 °F 32.0 °F 93% 29.83 in 10.0 mi SW 17.3 mph 23.0 mph N/A   Overcast
5:15 PM 33.8 °F 24.8 °F 32.0 °F 93% 29.83 in 10.0 mi SSW 12.7 mph - N/A   Overcast
5:35 PM 33.8 °F 23.5 °F 32.0 °F 93% 29.84 in 10.0 mi SSW 16.1 mph - N/A   Overcast
5:55 PM 32.0 °F 21.6 °F 32.0 °F 100% 29.84 in 10.0 mi South 15.0 mph - N/A   Overcast
6:15 PM 33.8 °F 24.3 °F 32.0 °F 93% 29.85 in 10.0 mi SSW 13.8 mph 20.7 mph N/A   Mostly Cloudy
6:35 PM 32.0 °F 21.6 °F 32.0 °F 100% 29.85 in 10.0 mi South 15.0 mph - N/A   Mostly Cloudy
6:55 PM 32.0 °F 23.6 °F 32.0 °F 100% 29.86 in 10.0 mi SSW 10.4 mph - N/A   Mostly Cloudy
7:15 PM 32.0 °F 24.2 °F 30.2 °F 93% 29.87 in 10.0 mi SSW 9.2 mph - N/A   Mostly Cloudy
7:35 PM 32.0 °F 23.6 °F 32.0 °F 100% 29.88 in 10.0 mi SSW 10.4 mph - N/A   Overcast
7:55 PM 32.0 °F 24.2 °F 32.0 °F 100% 29.89 in 8.0 mi South 9.2 mph - N/A Rain Light Rain
8:15 PM 32.0 °F 24.8 °F 30.2 °F 93% 29.91 in 1.0 mi West 8.1 mph - N/A Rain Light Rain
8:35 PM 32.0 °F 26.4 °F 30.2 °F 93% 29.92 in 1.0 mi West 5.8 mph - 0.01 in Snow Light Snow
8:55 PM 32.0 °F 25.6 °F 30.2 °F 93% 29.93 in 2.0 mi WSW 6.9 mph - 0.03 in Snow Light Snow
9:15 PM 32.0 °F 27.5 °F 30.2 °F 93% 29.93 in 2.0 mi SW 4.6 mph - 0.01 in Snow Light Snow
10:15 PM 32.0 °F 24.8 °F 30.2 °F 93% 29.93 in 10.0 mi SSW 8.1 mph - N/A   Mostly Cloudy
10:35 PM 32.0 °F 26.4 °F 30.2 °F 93% 29.94 in 2.5 mi SW 5.8 mph - N/A Snow Light Snow
10:55 PM 32.0 °F 26.4 °F 30.2 °F 93% 29.94 in 3.0 mi SW 5.8 mph - N/A Snow Light Snow
11:15 PM 32.0 °F 27.5 °F 30.2 °F 93% 29.94 in 3.0 mi SW 4.6 mph - N/A Snow Light Snow
11:35 PM 32.0 °F 27.5 °F 30.2 °F 93% 29.94 in 10.0 mi SSW 4.6 mph - N/A Snow Light Snow
11:55 PM 32.0 °F 27.5 °F 30.2 °F 93% 29.94 in 10.0 mi South 4.6 mph - N/A   Overcast